[[{"header":{"parameterUnit":"m.s-1","parameterCategory":1,"la1":30.2991,"la2":30.254,"lo1":-89.0895,"lo2":-89.0444,"dy":0.0017,"dx":0.0017,"nx":28,"ny":28,"refTime":"2023-08-10T03:00:00:Z","depth":0,"parameterNumber":2,"parameterNumberName":"U-component_of_WINDS"},"data":[0,0,0,0,0,0,0,0,0,0,0,0,0,0,0,0,0,0,0,0,0,0,0,0,0,0,0,0,0,0,0,0,0,0,0,0,0,0,0,0,0,0,0,0,0,0,0,0,0,0,0,0,0,0,0,0,0,0,4.7156,4.7156,0,4.723,4.7231,4.7232,4.7214,4.7212,4.7211,4.721,4.7287,4.729,4.7294,0,0,0,0,0,0,0,0,0,0,0,0,0,4.6999,4.7002,4.7155,4.7156,4.7157,4.723,4.7231,4.7232,4.7214,4.7212,4.7211,4.7209,4.7286,4.729,4.7294,0,0,0,0,0,0,0,0,0,0,0,0,0,4.707,4.7003,4.7155,4.7157,4.7158,4.723,4.7231,4.7232,4.7215,4.7212,4.721,4.7208,4.7284,4.7289,4.7294,4.7369,0,0,4.731,4.7312,0,0,0,0,0,0,0,0,4.7066,4.7075,4.7156,4.7157,4.7158,4.721,4.7204,4.7278,4.7215,4.7193,4.721,4.7207,4.7263,4.727,4.7289,4.7372,4.7376,4.731,4.7313,4.7316,4.7317,0,0,0,0,0,0,0,4.7061,4.7072,4.7185,4.7157,4.7159,4.7155,4.7162,4.7218,4.7239,4.7195,4.7194,4.7203,4.7263,4.7284,4.729,4.7377,4.731,4.7315,4.7318,4.732,4.7526,4.7528,0,0,0,0,0,0,4.7055,4.7068,4.7183,4.7187,4.7106,4.7159,4.7168,4.7196,4.7239,4.7243,4.7205,4.7202,4.7276,4.7284,4.7293,4.7383,4.7316,4.732,4.7323,4.7523,4.7526,4.7529,0,0,0,0,0,0,4.7051,4.7065,4.718,4.7127,4.7142,4.7164,4.7196,4.7198,4.7219,4.7246,4.725,4.7221,4.7275,4.7286,4.735,4.7385,4.7323,4.7327,4.7521,4.7524,4.7528,4.7563,0,0,0,0,0,0,4.7047,4.7064,4.7092,4.7128,4.7144,4.7235,4.7198,4.7202,4.7227,4.7224,4.7263,4.7267,4.7274,4.7343,4.7355,4.7391,4.7331,4.7517,4.7522,4.7526,4.7559,4.7567,4.7575,0,0,0,0,0,4.7042,4.7099,4.7094,4.7108,4.718,4.7237,4.7246,4.7253,4.723,4.7259,4.7277,4.7266,4.738,4.7349,4.7363,4.7401,4.7515,4.7521,4.7526,4.7555,4.7566,4.7575,0,0,0,0,0,0,4.7067,4.7104,4.7098,4.7169,4.72,4.7234,4.727,4.7264,4.7302,4.7298,4.7305,4.7313,4.7379,4.7397,4.7362,4.7476,4.7444,4.7453,4.7462,4.7472,4.748,4.7474,4.7336,0,0,0,0,0,4.7081,4.7124,4.7154,4.7214,4.723,4.7247,4.7273,4.7275,4.7307,4.732,4.7343,4.7375,4.7418,4.7446,4.7487,4.7562,4.757,4.7595,4.7603,4.7609,4.7616,4.7657,4.7668,4.7547,4.7547,4.7547,0,0,4.711,4.7136,4.7162,4.722,4.7244,4.7288,4.7258,4.7307,4.734,4.7328,4.7389,4.7407,4.7444,4.7513,4.7545,4.753,4.7652,4.7616,4.7621,4.7625,4.7664,4.7675,4.7686,4.7551,4.755,4.7549,0,0,4.7185,4.7209,4.7262,4.7287,4.7324,4.7335,4.7348,4.7383,4.7394,4.7456,4.7448,4.7488,4.7562,4.7588,4.7611,4.7698,4.7689,4.7711,4.7753,4.7792,4.7802,4.781,4.7841,4.7852,4.7718,4.7718,4.7719,0,4.7217,4.7283,4.729,4.7339,4.7364,4.7356,4.7409,4.7433,4.7482,4.75,4.7482,4.7575,4.7599,4.7675,4.7696,4.7715,4.773,4.7706,4.78,4.7809,4.7817,4.7846,4.7857,4.7721,4.7721,4.772,4.772,0,4.732,4.7367,4.7405,4.7452,4.7482,4.7533,4.7547,4.7577,4.7577,4.7591,4.7654,4.7683,4.7729,4.7748,4.7749,4.7824,4.7813,4.7798,4.7766,4.7831,4.7858,4.7869,4.7724,4.7723,4.7723,4.7722,0,0,4.7413,4.7463,4.7477,4.7498,4.7539,4.7575,4.7626,4.7672,4.7697,4.7731,4.7774,4.7837,4.7823,4.785,4.7853,4.7888,4.7955,4.7869,4.787,4.7883,4.804,4.805,4.8063,4.795,4.7952,4.7954,4.8036,0,4.7492,4.7581,4.7588,4.7669,4.7712,4.7705,4.7749,4.7779,4.7793,4.7832,4.7848,4.7893,4.7871,4.7887,4.7921,4.7939,4.7986,4.7934,4.799,4.7992,4.798,4.8077,4.8089,4.8165,4.8047,4.8049,4.805,0,4.7595,4.7632,4.7717,4.7752,4.777,4.781,4.7852,4.789,4.7924,4.7932,4.7962,4.7961,4.8014,4.7981,4.8054,4.8018,4.8041,4.8054,4.8057,4.8062,4.8024,4.8084,4.819,4.8201,4.8067,4.8066,4.8065,0,4.7654,4.7725,4.7785,4.7804,4.7846,4.7874,4.7893,4.7925,4.7952,4.799,4.8007,4.805,4.8074,4.8108,4.8119,4.8094,4.8191,4.8159,4.8199,4.8199,4.8219,4.8218,4.8329,4.8236,4.8236,4.8236,4.8235,0,4.774,4.7792,4.7812,4.7848,4.7907,4.7915,4.7973,4.799,4.8019,4.8059,4.8056,4.8094,4.8107,4.8147,4.8156,4.8215,4.8226,4.8234,4.8235,4.8234,4.8232,4.8248,4.8243,4.8239,4.8238,4.8237,4.8237,0,4.7815,4.783,4.7895,4.793,4.794,4.7981,4.8011,4.8047,4.8061,4.8112,4.8125,4.8147,4.8194,4.8209,4.8266,4.8272,4.834,4.8338,4.8329,4.8329,4.8367,4.8363,4.8492,4.851,4.8406,4.8407,4.8408,0,4.7869,4.7909,4.7948,4.7975,4.7995,4.8038,4.8065,4.8076,4.8105,4.8147,4.8177,4.8224,4.8262,4.8338,4.8359,4.8403,4.8401,4.8443,4.8407,4.8404,4.8401,4.8398,4.8401,4.8449,4.8451,4.8451,4.8452,0,4.7963,4.7968,4.8008,4.8051,4.8084,4.8118,4.8151,4.8173,4.8188,4.8221,4.8269,4.8298,4.8356,4.8403,4.8447,4.8467,4.8462,4.8464,4.8475,4.8473,4.8465,4.8469,4.8346,4.846,4.8459,4.8459,4.8458,4.8458,4.8028,4.8063,4.8096,4.8141,4.8167,4.8198,4.8233,4.8251,4.8292,4.8339,4.8343,4.8395,4.8429,4.8488,4.8511,4.8552,4.8539,4.8556,4.856,4.8564,4.8567,4.846,4.856,4.856,4.856,4.8559,4.8559,0,4.8121,4.8142,4.8183,4.8229,4.8264,4.8257,4.8293,4.8323,4.8369,4.84,4.8438,4.8493,4.8538,4.8563,4.8609,4.8637,4.8635,4.8648,4.8645,4.865,4.8575,4.8561,4.8648,4.8648,4.8648,4.8648,4.8648,4.8648,4.8174,4.8232,4.8242,4.8314,4.8335,4.8385,4.8407,4.8435,4.8461,4.8523,4.856,4.8576,4.8605,4.8653,4.8694,4.87,4.8716,4.873,4.8735,4.8665,4.8655,4.8647,4.8633,4.8734,4.8734,4.8806,4.8807,4.8807]},{"header":{"parameterUnit":"m.s-1","parameterCategory":1,"la1":30.2991,"la2":30.254,"lo1":-89.0895,"lo2":-89.0444,"dy":0.0017,"dx":0.0017,"nx":28,"ny":28,"refTime":"2023-08-10T03:00:00:Z","depth":0,"parameterNumber":3,"parameterNumberName":"V-component_of_WINDS"},"data":[0,0,0,0,0,0,0,0,0,0,0,0,0,0,0,0,0,0,0,0,0,0,0,0,0,0,0,0,0,0,0,0,0,0,0,0,0,0,0,0,0,0,0,0,0,0,0,0,0,0,0,0,0,0,0,0,0,0,1.9273,1.9273,0,1.9213,1.9212,1.9211,1.9174,1.9174,1.9174,1.9174,1.9108,1.9106,1.9105,0,0,0,0,0,0,0,0,0,0,0,0,0,1.9353,1.9352,1.9273,1.9272,1.9272,1.9213,1.9212,1.9211,1.9174,1.9174,1.9174,1.9173,1.9108,1.9107,1.9105,0,0,0,0,0,0,0,0,0,0,0,0,0,1.9308,1.9351,1.9273,1.9246,1.9243,1.9213,1.9212,1.9211,1.9174,1.9174,1.9174,1.9173,1.9109,1.9107,1.9104,1.9095,0,0,1.9097,1.9096,0,0,0,0,0,0,0,0,1.931,1.9305,1.9251,1.9248,1.9245,1.9201,1.9216,1.9172,1.9174,1.92,1.9174,1.9173,1.9139,1.9134,1.9123,1.9092,1.909,1.9097,1.9096,1.9095,1.9094,0,0,0,0,0,0,0,1.9314,1.9307,1.9249,1.925,1.9246,1.9236,1.9229,1.9207,1.9172,1.9198,1.9195,1.9189,1.9137,1.9126,1.9121,1.9089,1.9097,1.9095,1.9094,1.9093,1.9046,1.9046,0,0,0,0,0,0,1.9322,1.931,1.9251,1.9247,1.9278,1.9235,1.9227,1.9215,1.9172,1.9165,1.9189,1.9187,1.913,1.9124,1.9119,1.9105,1.9095,1.9092,1.9091,1.9046,1.9046,1.9047,0,0,0,0,0,0,1.9323,1.9317,1.9253,1.9278,1.9269,1.9234,1.922,1.9214,1.9202,1.9165,1.9158,1.9184,1.9129,1.9122,1.9102,1.9102,1.9091,1.9089,1.9046,1.9046,1.9046,1.9078,0,0,0,0,0,0,1.9326,1.9318,1.9315,1.9278,1.9268,1.9239,1.922,1.9213,1.9199,1.9196,1.9159,1.9152,1.9128,1.9105,1.9099,1.9099,1.9087,1.9046,1.9046,1.9046,1.9076,1.9079,1.9081,0,0,0,0,0,1.9329,1.9325,1.9315,1.9308,1.9264,1.9239,1.9233,1.9207,1.9199,1.9195,1.9171,1.9153,1.9103,1.9104,1.9096,1.9095,1.9045,1.9046,1.9046,1.9075,1.9078,1.9081,0,0,0,0,0,0,1.9361,1.932,1.9308,1.9293,1.927,1.9233,1.9227,1.9211,1.9188,1.9186,1.9154,1.9146,1.9128,1.9109,1.9111,1.9084,1.9072,1.9071,1.9097,1.9099,1.9102,1.9106,1.9085,0,0,0,0,0,1.9367,1.9351,1.9315,1.9305,1.9294,1.9263,1.9251,1.9233,1.9207,1.9197,1.9171,1.9146,1.9124,1.9111,1.9089,1.9073,1.9064,1.9069,1.9071,1.9073,1.9073,1.9062,1.9064,1.9048,1.9048,1.9048,0,0,1.9378,1.9353,1.9345,1.9311,1.9291,1.9274,1.9255,1.9238,1.9225,1.9194,1.9173,1.9153,1.9123,1.9105,1.9095,1.9089,1.9075,1.9074,1.9076,1.9074,1.9063,1.9065,1.9066,1.9048,1.9048,1.9048,0,0,1.939,1.937,1.9359,1.934,1.931,1.9289,1.9287,1.9252,1.9238,1.9217,1.9193,1.9176,1.914,1.9119,1.9104,1.9107,1.909,1.9101,1.9113,1.9103,1.9105,1.9106,1.9106,1.9107,1.91,1.91,1.9101,0,1.9407,1.9382,1.9355,1.934,1.9325,1.9298,1.9286,1.9268,1.9232,1.9222,1.9215,1.9169,1.9146,1.9123,1.9124,1.9112,1.9107,1.9105,1.9107,1.9108,1.9108,1.9108,1.9109,1.9102,1.9102,1.9102,1.9102,0,1.9404,1.9387,1.9382,1.9349,1.9334,1.932,1.929,1.9278,1.9261,1.924,1.9218,1.9191,1.9162,1.9155,1.9138,1.9129,1.9126,1.9113,1.9101,1.9112,1.9111,1.9111,1.9104,1.9104,1.9103,1.9103,0,0,1.9434,1.9388,1.9386,1.9371,1.9336,1.9322,1.9306,1.928,1.9269,1.9245,1.9231,1.9201,1.9189,1.9172,1.9152,1.9144,1.9148,1.9132,1.9131,1.9136,1.9135,1.9144,1.9145,1.9136,1.9136,1.9136,1.9137,0,1.944,1.9413,1.9389,1.937,1.9353,1.9326,1.9313,1.9289,1.9269,1.9251,1.9228,1.9208,1.9194,1.9183,1.9174,1.9149,1.9147,1.9149,1.9121,1.912,1.9129,1.9145,1.9155,1.9157,1.9137,1.9137,1.9137,0,1.9444,1.9423,1.9402,1.9369,1.9361,1.935,1.9323,1.9307,1.9279,1.9265,1.9246,1.9225,1.9206,1.9196,1.9169,1.9171,1.9158,1.9144,1.9143,1.9139,1.9129,1.9141,1.9158,1.9158,1.9136,1.9136,1.9136,0,1.9468,1.9434,1.9417,1.9405,1.9366,1.9358,1.9341,1.9313,1.9299,1.9275,1.9265,1.9239,1.9225,1.9205,1.9177,1.9173,1.9153,1.9141,1.914,1.914,1.9136,1.9137,1.9151,1.9129,1.9129,1.9129,1.9129,0,1.9477,1.9465,1.9427,1.9417,1.9403,1.9374,1.9361,1.9341,1.9316,1.9301,1.9276,1.9261,1.9226,1.9207,1.9185,1.9166,1.916,1.9147,1.9141,1.9149,1.9151,1.914,1.9139,1.9129,1.9129,1.9129,1.9129,0,1.9501,1.9475,1.9455,1.942,1.9411,1.9402,1.9371,1.9359,1.9338,1.9319,1.9312,1.9279,1.9255,1.9226,1.9192,1.9177,1.916,1.9151,1.917,1.9166,1.9167,1.9167,1.9175,1.9174,1.9153,1.9153,1.9153,0,1.9508,1.9499,1.9463,1.9452,1.9436,1.9418,1.9403,1.9374,1.936,1.9327,1.9319,1.9294,1.9272,1.9235,1.9207,1.9181,1.9171,1.9176,1.9167,1.9175,1.9171,1.9172,1.917,1.9178,1.9178,1.9179,1.9179,0,1.9524,1.9512,1.9493,1.9469,1.9453,1.9432,1.941,1.9402,1.9368,1.9353,1.9329,1.9312,1.9279,1.9253,1.9224,1.9205,1.9186,1.9182,1.918,1.9188,1.9199,1.9193,1.9176,1.9182,1.9181,1.9181,1.9181,1.9181,1.954,1.953,1.9504,1.9483,1.9464,1.9444,1.9431,1.9409,1.9389,1.936,1.9344,1.932,1.9292,1.9251,1.9232,1.9212,1.9206,1.9203,1.9203,1.9202,1.9205,1.9203,1.9207,1.9207,1.9207,1.9207,1.9206,0,1.9554,1.9536,1.9517,1.9488,1.9471,1.9456,1.9431,1.9418,1.9398,1.9374,1.9353,1.9325,1.9301,1.9271,1.9244,1.9234,1.9224,1.9227,1.9228,1.9223,1.9213,1.9217,1.9236,1.9236,1.9236,1.9236,1.9236,1.9236,1.956,1.9543,1.9527,1.95,1.9481,1.9459,1.9446,1.9427,1.9408,1.9378,1.9358,1.9339,1.9312,1.9283,1.9259,1.9251,1.9242,1.9248,1.9237,1.9227,1.9224,1.9222,1.9225,1.9246,1.9246,1.9249,1.9249,1.9249]}]]